| time (UTC) | temp F | wind direction | speed MPH | gust MPH | rain 1hr in | rain 24hr in | rain mn in | humidity % | barometer mb |
| 20260507220559 | 60 | 80 | 2.0 | 9.0 | 0.00 | 0.00 | 0.00 | 39 | 1011.2 |
| 20260507220059 | 60 | 219 | 4.0 | 9.0 | 0.00 | 0.00 | 0.00 | 41 | 1011.0 |
| 20260507215558 | 60 | 220 | 2.0 | 9.0 | 0.00 | 0.00 | 0.00 | 39 | 1011.0 |
| 20260507215100 | 61 | 39 | 3.0 | 8.0 | 0.00 | 0.00 | 0.00 | 42 | 1011.1 |
| 20260507214619 | 60 | 42 | 3.0 | 9.0 | 0.00 | 0.00 | 0.00 | 41 | 1011.1 |
| 20260507214103 | 59 | 214 | 3.0 | 12.0 | 0.00 | 0.00 | 0.00 | 39 | 1011.1 |
| 20260507213603 | 60 | 337 | 4.0 | 12.0 | 0.00 | 0.00 | 0.00 | 38 | 1011.1 |
| 20260507213108 | 60 | 297 | 4.0 | 8.0 | 0.00 | 0.00 | 0.00 | 37 | 1011.0 |
| 20260507212603 | 61 | 53 | 3.0 | 12.0 | 0.00 | 0.00 | 0.00 | 37 | 1010.8 |
| 20260507212102 | 62 | 197 | 4.0 | 13.0 | 0.00 | 0.00 | 0.00 | 39 | 1010.8 |
| 20260507211627 | 61 | 321 | 5.0 | 13.0 | 0.00 | 0.00 | 0.00 | 37 | 1010.8 |
| 20260507211058 | 61 | 292 | 3.0 | 10.0 | 0.00 | 0.00 | 0.00 | 39 | 1010.8 |
| 20260507210558 | 60 | 233 | 4.0 | 10.0 | 0.00 | 0.00 | 0.00 | 36 | 1010.7 |
| 20260507210100 | 61 | 293 | 3.0 | 9.0 | 0.00 | 0.00 | 0.00 | 38 | 1010.8 |
| 20260507205601 | 61 | 293 | 3.0 | 12.0 | 0.00 | 0.00 | 0.00 | 39 | 1010.7 |
| 20260507205058 | 60 | 278 | 3.0 | 12.0 | 0.00 | 0.00 | 0.00 | 39 | 1010.7 |
| 20260507204608 | 60 | 243 | 3.0 | 12.0 | 0.00 | 0.00 | 0.00 | 39 | 1010.6 |
| 20260507204103 | 60 | 267 | 2.0 | 9.0 | 0.00 | 0.00 | 0.00 | 41 | 1010.6 |
| 20260507203603 | 59 | 255 | 3.0 | 9.0 | 0.00 | 0.00 | 0.00 | 39 | 1010.7 |
| 20260507203102 | 60 | 252 | 3.0 | 9.0 | 0.00 | 0.00 | 0.00 | 39 | 1010.6 |
| 20260507202603 | 60 | 328 | 3.0 | 9.0 | 0.00 | 0.00 | 0.00 | 38 | 1010.8 |
| 20260507202105 | 60 | 319 | 3.0 | 9.0 | 0.00 | 0.00 | 0.00 | 39 | 1010.8 |
| 20260507201608 | 60 | 349 | 4.0 | 9.0 | 0.00 | 0.00 | 0.00 | 40 | 1010.8 |
| 20260507201102 | 60 | 300 | 1.0 | 5.0 | 0.00 | 0.00 | 0.00 | 41 | 1010.7 |
| 20260507200602 | 59 | 301 | 2.0 | 10.0 | 0.00 | 0.00 | 0.00 | 40 | 1010.7 |
| 20260507200059 | 60 | 236 | 2.0 | 11.0 | 0.00 | 0.00 | 0.00 | 41 | 1010.9 |
| 20260507195559 | 60 | 283 | 4.0 | 11.0 | 0.00 | 0.00 | 0.00 | 40 | 1010.9 |
| 20260507195105 | 60 | 34 | 3.0 | 8.0 | 0.00 | 0.00 | 0.00 | 43 | 1011.0 |
| 20260507194635 | 59 | 298 | 2.0 | 7.0 | 0.00 | 0.00 | 0.00 | 44 | 1011.0 |
| 20260507194059 | 59 | 243 | 2.0 | 7.0 | 0.00 | 0.00 | 0.00 | 43 | 1011.1 |
| 20260507193558 | 59 | 43 | 3.0 | 8.0 | 0.00 | 0.00 | 0.00 | 45 | 1011.2 |
| 20260507193100 | 59 | 283 | 3.0 | 11.0 | 0.00 | 0.00 | 0.00 | 45 | 1011.3 |
| 20260507192558 | 59 | 340 | 3.0 | 11.0 | 0.00 | 0.00 | 0.00 | 42 | 1011.3 |
| 20260507192058 | 59 | 257 | 3.0 | 9.0 | 0.00 | 0.00 | 0.00 | 42 | 1011.3 |
| 20260507191601 | 60 | 6 | 3.0 | 9.0 | 0.00 | 0.00 | 0.00 | 40 | 1011.3 |
| 20260507191103 | 60 | 259 | 3.0 | 7.0 | 0.00 | 0.00 | 0.00 | 44 | 1011.3 |
| 20260507190603 | 59 | 307 | 3.0 | 13.0 | 0.00 | 0.00 | 0.00 | 45 | 1011.2 |
| 20260507190101 | 59 | 309 | 3.0 | 13.0 | 0.00 | 0.00 | 0.00 | 44 | 1011.3 |
| 20260507185601 | 59 | 257 | 2.0 | 10.0 | 0.00 | 0.00 | 0.00 | 43 | 1011.3 |
| 20260507185105 | 59 | 245 | 3.0 | 12.0 | 0.00 | 0.00 | 0.00 | 44 | 1011.3 |
| 20260507184607 | 59 | 217 | 4.0 | 12.0 | 0.00 | 0.00 | 0.00 | 46 | 1011.3 |
| 20260507184058 | 59 | 330 | 3.0 | 10.0 | 0.00 | 0.00 | 0.00 | 47 | 1011.3 |
| 20260507183559 | 59 | 318 | 3.0 | 10.0 | 0.00 | 0.00 | 0.00 | 45 | 1011.5 |
| 20260507183058 | 58 | 276 | 3.0 | 8.0 | 0.00 | 0.00 | 0.00 | 46 | 1011.5 |
| 20260507182558 | 58 | 288 | 2.0 | 11.0 | 0.00 | 0.00 | 0.00 | 45 | 1011.5 |
| 20260507182059 | 59 | 231 | 2.0 | 11.0 | 0.00 | 0.00 | 0.00 | 43 | 1011.5 |
| 20260507181600 | 59 | 247 | 3.0 | 7.0 | 0.00 | 0.00 | 0.00 | 46 | 1011.5 |
| 20260507181058 | 58 | 213 | 1.0 | 12.0 | 0.00 | 0.00 | 0.00 | 47 | 1011.6 |
| 20260507180601 | 58 | 305 | 3.0 | 12.0 | 0.00 | 0.00 | 0.00 | 45 | 1011.6 |
| 20260507180106 | 58 | 306 | 2.0 | 6.0 | 0.00 | 0.00 | 0.00 | 47 | 1011.7 |
| 20260507175601 | 58 | 312 | 3.0 | 13.0 | 0.00 | 0.00 | 0.00 | 48 | 1011.7 |
| 20260507175059 | 58 | 236 | 2.0 | 13.0 | 0.00 | 0.00 | 0.00 | 48 | 1011.7 |
| 20260507174557 | 58 | 240 | 3.0 | 9.0 | 0.00 | 0.00 | 0.00 | 47 | 1012.0 |
| 20260507174057 | 58 | 284 | 4.0 | 9.0 | 0.00 | 0.00 | 0.00 | 49 | 1011.8 |
| 20260507173558 | 58 | 214 | 2.0 | 9.0 | 0.00 | 0.00 | 0.00 | 50 | 1012.0 |
| 20260507173100 | 58 | 286 | 2.0 | 9.0 | 0.00 | 0.00 | 0.00 | 47 | 1012.1 |
| 20260507172558 | 59 | 274 | 3.0 | 14.0 | 0.00 | 0.00 | 0.00 | 45 | 1012.2 |
| 20260507172057 | 58 | 302 | 3.0 | 14.0 | 0.00 | 0.00 | 0.00 | 48 | 1012.3 |
| 20260507171604 | 58 | 210 | 3.0 | 9.0 | 0.00 | 0.00 | 0.00 | 48 | 1012.3 |
| 20260507171058 | 58 | 288 | 3.0 | 8.0 | 0.00 | 0.00 | 0.00 | 47 | 1012.4 |
| 20260507170558 | 58 | 347 | 2.0 | 8.0 | 0.00 | 0.00 | 0.00 | 48 | 1012.5 |
| 20260507170057 | 57 | 275 | 2.0 | 8.0 | 0.00 | 0.00 | 0.00 | 54 | 1012.4 |
| 20260507165557 | 57 | 229 | 2.0 | 8.0 | 0.00 | 0.00 | 0.00 | 48 | 1012.4 |
| 20260507165058 | 56 | 206 | 3.0 | 5.0 | 0.00 | 0.00 | 0.00 | 48 | 1012.5 |
| 20260507164607 | 56 | 275 | 2.0 | 5.0 | 0.00 | 0.00 | 0.00 | 50 | 1012.6 |
| 20260507164101 | 56 | 330 | 3.0 | 9.0 | 0.00 | 0.00 | 0.00 | 50 | 1012.6 |
| 20260507163602 | 56 | 199 | 4.0 | 9.0 | 0.00 | 0.00 | 0.00 | 50 | 1012.7 |
| 20260507163103 | 56 | 240 | 1.0 | 8.0 | 0.00 | 0.00 | 0.00 | 51 | 1012.7 |
| 20260507162558 | 56 | 254 | 3.0 | 8.0 | 0.00 | 0.00 | 0.00 | 49 | 1012.8 |
| 20260507162058 | 55 | 314 | 2.0 | 4.0 | 0.00 | 0.00 | 0.00 | 52 | 1012.8 |
| 20260507161559 | 55 | 213 | 1.0 | 6.0 | 0.00 | 0.00 | 0.00 | 50 | 1012.9 |
| 20260507161058 | 55 | 106 | 2.0 | 8.0 | 0.00 | 0.00 | 0.00 | 49 | 1012.8 |
| 20260507160557 | 55 | 321 | 2.0 | 8.0 | 0.00 | 0.00 | 0.00 | 49 | 1013.0 |
| 20260507155557 | 55 | 234 | 2.0 | 6.0 | 0.00 | 0.00 | 0.00 | 51 | 1013.1 |
| 20260507155101 | 55 | 218 | 2.0 | 8.0 | 0.00 | 0.00 | 0.00 | 51 | 1013.1 |
| 20260507154607 | 55 | 321 | 3.0 | 8.0 | 0.00 | 0.00 | 0.00 | 51 | 1013.1 |
| 20260507154109 | 55 | 86 | 2.0 | 9.0 | 0.00 | 0.00 | 0.00 | 51 | 1013.1 |
| 20260507153604 | 54 | 233 | 1.0 | 9.0 | 0.00 | 0.00 | 0.00 | 53 | 1013.2 |
| 20260507153058 | 54 | 345 | 2.0 | 5.0 | 0.00 | 0.00 | 0.00 | 52 | 1013.2 |
| 20260507152559 | 54 | 20 | 2.0 | 4.0 | 0.00 | 0.00 | 0.00 | 52 | 1013.3 |
| 20260507152057 | 54 | 229 | 2.0 | 7.0 | 0.00 | 0.00 | 0.00 | 54 | 1013.3 |
| 20260507151603 | 54 | 221 | 1.0 | 7.0 | 0.00 | 0.00 | 0.00 | 53 | 1013.3 |
| 20260507151059 | 53 | 298 | 2.0 | 7.0 | 0.00 | 0.00 | 0.00 | 54 | 1013.4 |
| 20260507150602 | 53 | 266 | 2.0 | 8.0 | 0.00 | 0.00 | 0.00 | 52 | 1013.5 |
| 20260507150100 | 53 | 38 | 5.0 | 9.0 | 0.00 | 0.00 | 0.00 | 52 | 1013.5 |
| 20260507145558 | 53 | 247 | 4.0 | 9.0 | 0.00 | 0.01 | 0.00 | 54 | 1013.6 |
| 20260507145057 | 53 | 261 | 3.0 | 9.0 | 0.00 | 0.01 | 0.00 | 53 | 1013.6 |
| 20260507144603 | 53 | 244 | 2.0 | 9.0 | 0.00 | 0.01 | 0.00 | 54 | 1013.7 |
| 20260507144100 | 53 | 230 | 3.0 | 9.0 | 0.00 | 0.01 | 0.00 | 56 | 1013.7 |
| 20260507143603 | 53 | 295 | 1.0 | 6.0 | 0.00 | 0.01 | 0.00 | 58 | 1013.8 |
| 20260507143112 | 52 | 35 | 1.0 | 6.0 | 0.00 | 0.01 | 0.00 | 58 | 1013.9 |
| 20260507142559 | 52 | 205 | 3.0 | 5.0 | 0.00 | 0.01 | 0.00 | 58 | 1014.0 |
| 20260507142058 | 52 | 333 | 2.0 | 9.0 | 0.00 | 0.01 | 0.00 | 57 | 1014.0 |
| 20260507141601 | 52 | 285 | 3.0 | 9.0 | 0.00 | 0.01 | 0.00 | 59 | 1014.1 |
| 20260507141100 | 52 | 219 | 2.0 | 4.0 | 0.00 | 0.01 | 0.00 | 59 | 1014.2 |
| 20260507140557 | 52 | 263 | 1.0 | 4.0 | 0.00 | 0.01 | 0.00 | 58 | 1014.2 |
| 20260507140101 | 52 | 31 | 0.0 | 2.0 | 0.00 | 0.01 | 0.00 | 62 | 1014.4 |
| 20260507135559 | 51 | 236 | 0.0 | 5.0 | 0.00 | 0.03 | 0.00 | 61 | 1014.4 |
| 20260507135059 | 51 | 205 | 2.0 | 6.0 | 0.00 | 0.03 | 0.00 | 62 | 1014.4 |
| 20260507134600 | 51 | 264 | 1.0 | 6.0 | 0.00 | 0.03 | 0.00 | 62 | 1014.5 |
| 20260507134057 | 50 | 281 | 2.0 | 6.0 | 0.00 | 0.03 | 0.00 | 62 | 1014.5 |
| 20260507133557 | 50 | 248 | 2.0 | 6.0 | 0.00 | 0.03 | 0.00 | 62 | 1014.5 |
| 20260507133108 | 50 | 218 | 3.0 | 6.0 | 0.00 | 0.03 | 0.00 | 64 | 1014.5 |
| 20260507132600 | 50 | 174 | 2.0 | 4.0 | 0.00 | 0.03 | 0.00 | 63 | 1014.6 |
| 20260507132101 | 49 | 220 | 1.0 | 6.0 | 0.00 | 0.03 | 0.00 | 65 | 1014.6 |
| 20260507131615 | 49 | 181 | 0.0 | 6.0 | 0.00 | 0.03 | 0.00 | 66 | 1014.7 |
| 20260507131101 | 49 | 205 | 1.0 | 5.0 | 0.00 | 0.03 | 0.00 | 65 | 1014.6 |
| 20260507130601 | 48 | 208 | 2.0 | 8.0 | 0.00 | 0.03 | 0.00 | 67 | 1014.6 |
| 20260507130100 | 48 | 221 | 3.0 | 8.0 | 0.00 | 0.03 | 0.00 | 67 | 1014.5 |
| 20260507125559 | 47 | 0 | 1.0 | 3.0 | 0.00 | 0.06 | 0.00 | 69 | 1014.5 |
| 20260507125058 | 47 | 13 | 0.0 | 3.0 | 0.00 | 0.06 | 0.00 | 71 | 1014.5 |
| 20260507124606 | 46 | 225 | 0.0 | 3.0 | 0.00 | 0.06 | 0.00 | 74 | 1014.4 |
| 20260507124059 | 46 | 0 | 0.0 | 3.0 | 0.00 | 0.06 | 0.00 | 75 | 1014.6 |
| 20260507123559 | 45 | 221 | 0.0 | 3.0 | 0.00 | 0.06 | 0.00 | 77 | 1014.4 |
| 20260507123100 | 45 | 0 | 0.0 | 0.0 | 0.00 | 0.06 | 0.00 | 82 | 1014.4 |
| 20260507122558 | 44 | 0 | 0.0 | 0.0 | 0.00 | 0.06 | 0.00 | 84 | 1014.6 |
| 20260507122102 | 43 | 0 | 0.0 | 0.0 | 0.00 | 0.06 | 0.00 | 89 | 1014.6 |
| 20260507121601 | 42 | 0 | 0.0 | 0.0 | 0.00 | 0.06 | 0.00 | 93 | 1014.6 |
| 20260507121102 | 42 | 0 | 0.0 | 0.0 | 0.00 | 0.06 | 0.00 | 94 | 1014.5 |
| 20260507120558 | 41 | 0 | 0.0 | 0.0 | 0.00 | 0.06 | 0.00 | 95 | 1014.5 |
| 20260507120100 | 40 | 0 | 0.0 | 0.0 | 0.00 | 0.06 | 0.00 | 95 | 1014.6 |
| 20260507115558 | 40 | 0 | 0.0 | 0.0 | 0.00 | 0.09 | 0.00 | 95 | 1014.5 |
| 20260507115059 | 39 | 0 | 0.0 | 0.0 | 0.00 | 0.09 | 0.00 | 94 | 1014.5 |
| 20260507114607 | 38 | 0 | 0.0 | 0.0 | 0.00 | 0.09 | 0.00 | 94 | 1014.5 |
| 20260507114059 | 38 | 0 | 0.0 | 0.0 | 0.00 | 0.09 | 0.00 | 94 | 1014.5 |
| 20260507113558 | 37 | 0 | 0.0 | 0.0 | 0.00 | 0.09 | 0.00 | 94 | 1014.4 |
| 20260507113103 | 37 | 0 | 0.0 | 0.0 | 0.00 | 0.09 | 0.00 | 94 | 1014.4 |
| 20260507112600 | 37 | 0 | 0.0 | 0.0 | 0.00 | 0.09 | 0.00 | 94 | 1014.2 |
| 20260507112100 | 37 | 0 | 0.0 | 0.0 | 0.00 | 0.09 | 0.00 | 94 | 1014.3 |
| 20260507111603 | 37 | 0 | 0.0 | 0.0 | 0.00 | 0.09 | 0.00 | 93 | 1014.2 |
| 20260507111057 | 37 | 0 | 0.0 | 0.0 | 0.00 | 0.09 | 0.00 | 93 | 1014.2 |
| 20260507110557 | 37 | 0 | 0.0 | 0.0 | 0.00 | 0.09 | 0.00 | 93 | 1014.3 |
| 20260507105557 | 36 | 0 | 0.0 | 0.0 | 0.00 | 0.20 | 0.00 | 93 | 1014.2 |
| 20260507105101 | 36 | 0 | 0.0 | 0.0 | 0.00 | 0.20 | 0.00 | 93 | 1014.2 |
| 20260507104600 | 36 | 0 | 0.0 | 0.0 | 0.00 | 0.20 | 0.00 | 93 | 1014.0 |
| 20260507104100 | 36 | 0 | 0.0 | 0.0 | 0.00 | 0.20 | 0.00 | 93 | 1014.0 |
| 20260507103559 | 36 | 0 | 0.0 | 0.0 | 0.00 | 0.20 | 0.00 | 92 | 1013.9 |
| 20260507103058 | 36 | 0 | 0.0 | 0.0 | 0.00 | 0.20 | 0.00 | 92 | 1013.9 |
| 20260507102602 | 36 | 0 | 0.0 | 0.0 | 0.00 | 0.20 | 0.00 | 92 | 1013.8 |
| 20260507102102 | 36 | 0 | 0.0 | 0.0 | 0.00 | 0.20 | 0.00 | 92 | 1013.8 |
| 20260507101601 | 36 | 0 | 0.0 | 0.0 | 0.00 | 0.20 | 0.00 | 92 | 1013.8 |
| 20260507101057 | 37 | 0 | 0.0 | 0.0 | 0.00 | 0.20 | 0.00 | 92 | 1013.8 |
| 20260507100557 | 37 | 0 | 0.0 | 0.0 | 0.00 | 0.20 | 0.00 | 92 | 1013.8 |
| 20260507095558 | 37 | 0 | 0.0 | 0.0 | 0.00 | 0.30 | 0.00 | 91 | 1013.8 |
| 20260507095058 | 37 | 0 | 0.0 | 0.0 | 0.00 | 0.30 | 0.00 | 91 | 1013.7 |
| 20260507094558 | 37 | 0 | 0.0 | 0.0 | 0.00 | 0.30 | 0.00 | 91 | 1013.7 |
| 20260507094103 | 37 | 0 | 0.0 | 0.0 | 0.00 | 0.30 | 0.00 | 91 | 1013.6 |
| 20260507093600 | 37 | 0 | 0.0 | 0.0 | 0.00 | 0.30 | 0.00 | 91 | 1013.7 |
| 20260507093101 | 37 | 0 | 0.0 | 0.0 | 0.00 | 0.30 | 0.00 | 91 | 1013.7 |
| 20260507092557 | 37 | 0 | 0.0 | 0.0 | 0.00 | 0.30 | 0.00 | 90 | 1013.8 |
| 20260507092057 | 38 | 0 | 0.0 | 0.0 | 0.00 | 0.30 | 0.00 | 90 | 1013.8 |
| 20260507091601 | 38 | 0 | 0.0 | 0.0 | 0.00 | 0.30 | 0.00 | 90 | 1013.8 |
| 20260507091104 | 38 | 0 | 0.0 | 0.0 | 0.00 | 0.30 | 0.00 | 89 | 1014.0 |
| 20260507090557 | 38 | 0 | 0.0 | 0.0 | 0.00 | 0.30 | 0.00 | 89 | 1014.0 |
| 20260507090101 | 38 | 0 | 0.0 | 0.0 | 0.00 | 0.30 | 0.00 | 90 | 1014.0 |
| 20260507085600 | 38 | 0 | 0.0 | 0.0 | 0.00 | 0.42 | 0.00 | 89 | 1014.0 |
| 20260507085100 | 39 | 0 | 0.0 | 0.0 | 0.00 | 0.42 | 0.00 | 88 | 1014.0 |
| 20260507084602 | 39 | 0 | 0.0 | 0.0 | 0.00 | 0.42 | 0.00 | 89 | 1014.0 |
| 20260507084057 | 39 | 0 | 0.0 | 0.0 | 0.00 | 0.42 | 0.00 | 88 | 1013.9 |
| 20260507083558 | 39 | 0 | 0.0 | 0.0 | 0.00 | 0.42 | 0.00 | 88 | 1013.9 |
| 20260507083102 | 39 | 0 | 0.0 | 0.0 | 0.00 | 0.42 | 0.00 | 88 | 1013.9 |
| 20260507082559 | 39 | 0 | 0.0 | 0.0 | 0.00 | 0.42 | 0.00 | 87 | 1013.9 |
| 20260507082102 | 40 | 0 | 0.0 | 0.0 | 0.00 | 0.42 | 0.00 | 87 | 1014.0 |
| 20260507081605 | 40 | 0 | 0.0 | 0.0 | 0.00 | 0.42 | 0.00 | 86 | 1014.0 |
| 20260507081058 | 40 | 0 | 0.0 | 0.0 | 0.00 | 0.42 | 0.00 | 86 | 1014.0 |
| 20260507080601 | 40 | 0 | 0.0 | 0.0 | 0.00 | 0.42 | 0.00 | 86 | 1014.0 |
| 20260507080117 | 40 | 0 | 0.0 | 0.0 | 0.00 | 0.42 | 0.00 | 85 | 1013.9 |
| 20260507075557 | 40 | 0 | 0.0 | 0.0 | 0.00 | 0.43 | 0.00 | 84 | 1013.9 |
| 20260507075100 | 41 | 0 | 0.0 | 0.0 | 0.00 | 0.43 | 0.00 | 84 | 1014.0 |
| 20260507074602 | 41 | 0 | 0.0 | 0.0 | 0.00 | 0.43 | 0.00 | 84 | 1013.9 |
| 20260507074100 | 41 | 0 | 0.0 | 0.0 | 0.00 | 0.43 | 0.00 | 83 | 1014.0 |
| 20260507073603 | 41 | 0 | 0.0 | 0.0 | 0.00 | 0.43 | 0.00 | 82 | 1014.1 |
| 20260507073104 | 42 | 0 | 0.0 | 0.0 | 0.00 | 0.43 | 0.00 | 82 | 1014.0 |
| 20260507072601 | 42 | 0 | 0.0 | 0.0 | 0.00 | 0.43 | 0.00 | 82 | 1013.9 |
| 20260507072059 | 42 | 0 | 0.0 | 0.0 | 0.00 | 0.43 | 0.00 | 81 | 1014.0 |
| 20260507071612 | 42 | 0 | 0.0 | 0.0 | 0.00 | 0.43 | 0.00 | 80 | 1014.1 |
| 20260507071100 | 43 | 0 | 0.0 | 0.0 | 0.00 | 0.43 | 0.00 | 80 | 1014.1 |
| 20260507070558 | 43 | 0 | 0.0 | 0.0 | 0.00 | 0.43 | 0.00 | 79 | 1014.0 |
| 20260507065558 | 44 | 0 | 0.0 | 0.0 | 0.00 | 0.47 | 0.00 | 77 | 1014.1 |
| 20260507065057 | 44 | 0 | 0.0 | 0.0 | 0.00 | 0.47 | 0.00 | 76 | 1014.1 |
| 20260507064600 | 45 | 0 | 0.0 | 0.0 | 0.00 | 0.47 | 0.00 | 75 | 1014.1 |
| 20260507064059 | 45 | 0 | 0.0 | 0.0 | 0.00 | 0.47 | 0.00 | 75 | 1014.2 |
| 20260507063558 | 46 | 0 | 0.0 | 0.0 | 0.00 | 0.47 | 0.00 | 74 | 1014.2 |
| 20260507063104 | 46 | 0 | 0.0 | 0.0 | 0.00 | 0.47 | 0.00 | 74 | 1014.2 |
| 20260507062559 | 46 | 0 | 0.0 | 0.0 | 0.00 | 0.47 | 0.00 | 73 | 1014.1 |
| 20260507062100 | 47 | 0 | 0.0 | 0.0 | 0.00 | 0.47 | 0.00 | 73 | 1014.1 |
| 20260507061602 | 47 | 0 | 0.0 | 0.0 | 0.00 | 0.47 | 0.00 | 73 | 1014.1 |
| 20260507061059 | 47 | 0 | 0.0 | 0.0 | 0.00 | 0.47 | 0.00 | 72 | 1014.0 |
| 20260507060559 | 47 | 0 | 0.0 | 0.0 | 0.00 | 0.47 | 0.00 | 72 | 1014.2 |
| 20260507060100 | 47 | 0 | 0.0 | 0.0 | 0.00 | 0.47 | 0.00 | 70 | 1014.3 |
| 20260507055600 | 47 | 0 | 0.0 | 0.0 | 0.00 | 0.50 | 0.00 | 71 | 1014.3 |
| 20260507055100 | 47 | 0 | 0.0 | 1.0 | 0.00 | 0.50 | 0.00 | 71 | 1014.3 |
| 20260507054603 | 47 | 0 | 0.0 | 1.0 | 0.00 | 0.50 | 0.00 | 69 | 1014.4 |
| 20260507054100 | 48 | 0 | 0.0 | 1.0 | 0.00 | 0.50 | 0.00 | 69 | 1014.5 |
| 20260507053600 | 48 | 0 | 0.0 | 0.0 | 0.00 | 0.50 | 0.00 | 69 | 1014.5 |
| 20260507053127 | 48 | 0 | 0.0 | 1.0 | 0.00 | 0.50 | 0.00 | 69 | 1014.6 |
| 20260507052559 | 48 | 0 | 0.0 | 1.0 | 0.00 | 0.50 | 0.00 | 68 | 1014.7 |
| 20260507052059 | 48 | 0 | 0.0 | 0.0 | 0.00 | 0.50 | 0.00 | 68 | 1014.7 |
| 20260507051605 | 48 | 0 | 0.0 | 2.0 | 0.00 | 0.50 | 0.00 | 68 | 1014.9 |
| 20260507051059 | 48 | 0 | 0.0 | 2.0 | 0.00 | 0.50 | 0.00 | 67 | 1014.8 |
| 20260507050559 | 48 | 0 | 0.0 | 2.0 | 0.00 | 0.50 | 0.00 | 67 | 1014.9 |
| 20260507050108 | 48 | 0 | 0.0 | 1.0 | 0.00 | 0.50 | 0.00 | 67 | 1014.8 |
| 20260507045600 | 48 | 0 | 0.0 | 0.0 | 0.00 | 0.52 | 0.00 | 69 | 1014.7 |
| 20260507045059 | 48 | 0 | 0.0 | 0.0 | 0.00 | 0.52 | 0.00 | 68 | 1014.7 |
| 20260507044559 | 48 | 0 | 0.0 | 0.0 | 0.00 | 0.52 | 0.00 | 69 | 1014.7 |
| 20260507044100 | 48 | 0 | 0.0 | 1.0 | 0.00 | 0.52 | 0.00 | 69 | 1014.7 |
| 20260507043559 | 48 | 0 | 0.0 | 1.0 | 0.00 | 0.52 | 0.00 | 68 | 1014.7 |
| 20260507043101 | 49 | 0 | 0.0 | 1.0 | 0.00 | 0.52 | 0.00 | 69 | 1014.6 |
| 20260507042600 | 49 | 0 | 0.0 | 1.0 | 0.00 | 0.52 | 0.00 | 69 | 1014.8 |
| 20260507042103 | 49 | 0 | 0.0 | 0.0 | 0.00 | 0.52 | 0.00 | 71 | 1014.7 |
| 20260507041559 | 49 | 0 | 0.0 | 0.0 | 0.00 | 0.52 | 0.00 | 69 | 1014.7 |
| 20260507041103 | 49 | 0 | 0.0 | 0.0 | 0.00 | 0.52 | 0.00 | 69 | 1014.7 |
| 20260507040600 | 49 | 0 | 0.0 | 0.0 | 0.00 | 0.52 | 0.00 | 70 | 1014.6 |
| 20260507040115 | 49 | 0 | 0.0 | 1.0 | 0.00 | 0.52 | 0.00 | 70 | 1014.7 |
| 20260507035559 | 49 | 0 | 0.0 | 1.0 | 0.00 | 0.52 | 0.52 | 68 | 1014.6 |
| 20260507035059 | 49 | 0 | 0.0 | 1.0 | 0.00 | 0.52 | 0.52 | 68 | 1014.6 |
| 20260507034600 | 49 | 0 | 0.0 | 1.0 | 0.00 | 0.52 | 0.52 | 67 | 1014.4 |
| 20260507034059 | 49 | 0 | 0.0 | 1.0 | 0.00 | 0.52 | 0.52 | 68 | 1014.5 |
| 20260507033600 | 49 | 14 | 0.0 | 1.0 | 0.00 | 0.52 | 0.52 | 68 | 1014.6 |
| 20260507033101 | 49 | 0 | 0.0 | 1.0 | 0.00 | 0.52 | 0.52 | 68 | 1014.6 |
| 20260507032559 | 49 | 0 | 0.0 | 1.0 | 0.00 | 0.52 | 0.52 | 68 | 1014.6 |
| 20260507032059 | 49 | 0 | 0.0 | 1.0 | 0.00 | 0.52 | 0.52 | 68 | 1014.5 |
| 20260507031600 | 50 | 0 | 0.0 | 1.0 | 0.00 | 0.52 | 0.52 | 68 | 1014.3 |
| 20260507031059 | 50 | 0 | 0.0 | 0.0 | 0.00 | 0.52 | 0.52 | 68 | 1014.2 |
| 20260507030559 | 50 | 42 | 0.0 | 1.0 | 0.00 | 0.52 | 0.52 | 67 | 1014.2 |
| 20260507030100 | 50 | 0 | 0.0 | 1.0 | 0.00 | 0.52 | 0.52 | 66 | 1014.1 |
| 20260507025559 | 50 | 0 | 0.0 | 1.0 | 0.00 | 0.52 | 0.52 | 66 | 1014.2 |
| 20260507025059 | 50 | 0 | 0.0 | 1.0 | 0.00 | 0.52 | 0.52 | 67 | 1014.1 |
| 20260507024605 | 50 | 0 | 0.0 | 0.0 | 0.00 | 0.52 | 0.52 | 66 | 1014.1 |
| 20260507024058 | 50 | 0 | 0.0 | 0.0 | 0.00 | 0.52 | 0.52 | 66 | 1014.2 |
| 20260507023559 | 50 | 0 | 0.0 | 1.0 | 0.00 | 0.52 | 0.52 | 66 | 1014.1 |
| 20260507023100 | 50 | 0 | 0.0 | 1.0 | 0.00 | 0.52 | 0.52 | 65 | 1014.1 |
| 20260507022559 | 50 | 0 | 0.0 | 1.0 | 0.00 | 0.52 | 0.52 | 65 | 1014.2 |
| 20260507022058 | 51 | 0 | 0.0 | 4.0 | 0.00 | 0.52 | 0.52 | 65 | 1014.1 |
| 20260507021600 | 51 | 0 | 0.0 | 4.0 | 0.00 | 0.52 | 0.52 | 65 | 1014.1 |
| 20260507021100 | 51 | 25 | 0.0 | 4.0 | 0.00 | 0.52 | 0.52 | 63 | 1013.7 |
| 20260507020604 | 51 | 0 | 0.0 | 1.0 | 0.00 | 0.52 | 0.52 | 64 | 1013.8 |
| 20260507020100 | 51 | 195 | 0.0 | 1.0 | 0.00 | 0.52 | 0.52 | 64 | 1013.8 |
| 20260507015559 | 51 | 194 | 0.0 | 1.0 | 0.00 | 0.52 | 0.52 | 64 | 1013.7 |
| 20260507015059 | 51 | 218 | 0.0 | 2.0 | 0.00 | 0.52 | 0.52 | 64 | 1013.7 |
| 20260507014621 | 51 | 191 | 0.0 | 2.0 | 0.00 | 0.52 | 0.52 | 64 | 1013.6 |
| 20260507014059 | 51 | 200 | 0.0 | 2.0 | 0.00 | 0.52 | 0.52 | 64 | 1013.5 |
| 20260507013603 | 51 | 224 | 0.0 | 2.0 | 0.00 | 0.52 | 0.52 | 65 | 1013.6 |
| 20260507013059 | 51 | 0 | 0.0 | 2.0 | 0.00 | 0.52 | 0.52 | 66 | 1013.4 |
| 20260507012559 | 51 | 25 | 0.0 | 1.0 | 0.00 | 0.52 | 0.52 | 65 | 1013.4 |
| 20260507012059 | 51 | 68 | 0.0 | 4.0 | 0.00 | 0.52 | 0.52 | 65 | 1013.3 |
| 20260507011604 | 51 | 0 | 1.0 | 4.0 | 0.00 | 0.52 | 0.52 | 64 | 1013.2 |
| 20260507011058 | 52 | 360 | 0.0 | 2.0 | 0.00 | 0.52 | 0.52 | 66 | 1013.2 |
| 20260507010559 | 52 | 0 | 1.0 | 4.0 | 0.00 | 0.52 | 0.52 | 65 | 1013.2 |
| 20260507010112 | 52 | 0 | 0.0 | 4.0 | 0.00 | 0.52 | 0.52 | 66 | 1013.1 |
| 20260507005559 | 52 | 0 | 0.0 | 4.0 | 0.00 | 0.52 | 0.52 | 65 | 1013.3 |
| 20260507005059 | 52 | 4 | 0.0 | 3.0 | 0.00 | 0.52 | 0.52 | 67 | 1013.4 |
| 20260507004615 | 52 | 265 | 1.0 | 4.0 | 0.00 | 0.52 | 0.52 | 67 | 1013.5 |
| 20260507004059 | 52 | 0 | 0.0 | 4.0 | 0.00 | 0.52 | 0.52 | 67 | 1013.4 |
| 20260507003600 | 52 | 338 | 1.0 | 4.0 | 0.00 | 0.52 | 0.52 | 67 | 1013.6 |
| 20260507003102 | 52 | 0 | 1.0 | 5.0 | 0.00 | 0.52 | 0.52 | 66 | 1013.5 |
| 20260507002559 | 52 | 46 | 1.0 | 5.0 | 0.00 | 0.52 | 0.52 | 66 | 1013.6 |
| 20260507002059 | 53 | 229 | 1.0 | 3.0 | 0.00 | 0.52 | 0.52 | 66 | 1013.5 |
| 20260507001604 | 53 | 28 | 1.0 | 7.0 | 0.00 | 0.52 | 0.52 | 66 | 1013.5 |
| 20260507001059 | 53 | 252 | 2.0 | 7.0 | 0.00 | 0.52 | 0.52 | 67 | 1013.6 |
| 20260507000559 | 53 | 4 | 1.0 | 7.0 | 0.00 | 0.52 | 0.52 | 67 | 1013.6 |
| 20260507000059 | 53 | 359 | 2.0 | 7.0 | 0.00 | 0.52 | 0.52 | 67 | 1013.5 |
| 20260506235603 | 53 | 38 | 2.0 | 7.0 | 0.00 | 0.52 | 0.52 | 68 | 1013.3 |
| 20260506235100 | 53 | 273 | 1.0 | 7.0 | 0.00 | 0.52 | 0.52 | 69 | 1013.3 |
| 20260506234601 | 53 | 43 | 0.0 | 2.0 | 0.00 | 0.52 | 0.52 | 71 | 1013.4 |
| 20260506234100 | 53 | 13 | 0.0 | 2.0 | 0.00 | 0.52 | 0.52 | 73 | 1013.1 |
| 20260506233600 | 53 | 285 | 1.0 | 2.0 | 0.00 | 0.52 | 0.52 | 72 | 1013.1 |
| 20260506233059 | 54 | 0 | 0.0 | 2.0 | 0.00 | 0.52 | 0.52 | 72 | 1013.0 |
| 20260506232558 | 54 | 300 | 0.0 | 2.0 | 0.00 | 0.52 | 0.52 | 73 | 1013.0 |
| 20260506232059 | 54 | 33 | 1.0 | 6.0 | 0.00 | 0.52 | 0.52 | 73 | 1013.1 |
| 20260506231602 | 54 | 269 | 1.0 | 6.0 | 0.00 | 0.52 | 0.52 | 72 | 1012.9 |
| 20260506231105 | 54 | 51 | 0.0 | 2.0 | 0.00 | 0.52 | 0.52 | 73 | 1012.9 |
| 20260506230559 | 54 | 16 | 0.0 | 4.0 | 0.00 | 0.52 | 0.52 | 72 | 1012.7 |
| 20260506230104 | 54 | 42 | 1.0 | 4.0 | 0.00 | 0.52 | 0.52 | 73 | 1012.8 |
| 20260506225559 | 54 | 34 | 0.0 | 4.0 | 0.00 | 0.52 | 0.52 | 72 | 1012.7 |
| 20260506225059 | 54 | 56 | 0.0 | 4.0 | 0.00 | 0.52 | 0.52 | 73 | 1012.6 |
| 20260506224559 | 54 | 275 | 1.0 | 4.0 | 0.00 | 0.52 | 0.52 | 71 | 1012.6 |
| 20260506224058 | 54 | 0 | 0.0 | 5.0 | 0.00 | 0.52 | 0.52 | 72 | 1012.6 |
| 20260506223602 | 53 | 33 | 0.0 | 5.0 | 0.00 | 0.52 | 0.52 | 72 | 1012.5 |
| 20260506223108 | 53 | 25 | 1.0 | 4.0 | 0.00 | 0.52 | 0.52 | 72 | 1012.5 |
| 20260506222559 | 54 | 53 | 1.0 | 5.0 | 0.00 | 0.52 | 0.52 | 73 | 1012.5 |
| 20260506222059 | 54 | 34 | 2.0 | 5.0 | 0.00 | 0.52 | 0.52 | 73 | 1012.5 |
| 20260506221600 | 54 | 41 | 2.0 | 5.0 | 0.00 | 0.52 | 0.52 | 74 | 1012.5 |
| 20260506221059 | 54 | 29 | 2.0 | 5.0 | 0.00 | 0.52 | 0.52 | 73 | 1012.4 |